Terminal Aerodrome Forecast
Issued by NWS Billings, MT

Home | Current Version | Previous Version | Text Only | Print | Product List | Glossary On
Versions: 1 2 3 4 5 6 7 8 9 10 11 12 13 14 15 16 17 18 19 20 21 22 23 24 25 26 27 28 29 30 31 32 33 34
433
FTUS45 KBYZ 241120
TAFMLS
TAF
KMLS 241120Z 2412/2512 14010G18KT P6SM FEW120 SCT250
     FM241500 33015KT P6SM SCT250
     FM250200 03010KT P6SM VCTS FEW100CB BKN200=

USA.gov is the U.S. government's official web portal to all federal, state and local government web resources and services.